STARLINK-31692, 59577

Orbit data source: Space-Track

STARLINK-31692, 59577 is a payload satellite owned by SpaceX/Seattle (US) in LEO that was launched on Tue, 23 Apr 2024 UTC via an FALCON 9 launch vehicle from the Air Force Eastern Test Range (AFETR). Payload-class satellites include a variety of spacecraft equipped with specific instruments for various scientific and technological missions. These include communications satellites like Starlink; space stations such as the ISS; scientific satellites like the Hubble; Earth observation satellites from companies like Planet Labs, Umbra, and HawkEye 360; GPS; miniature CubeSats for education and research; and military/defense satellites.

Loading next visibility...
Identifier
59577, 2024-076P
Orbit
LEO
Country
Flag of USUS
Related business
Manufacturer
SpaceX/Seattle
Mission
Operational Commercial Communications
Bus & Motor
STARLINK V2M, Unknown motor
Mass
730 kg wet, ~700 kg dry
Launch date (UTC)
2024-04-23 (2 years ago)
Launch vehicle
FALCON 9
Launch site
Air Force Eastern Test Range (AFETR)
Object type
Payload
Rocket body
Debris
Shape & HBR
Box + 2 Pan, 17.7 m
Radar Cross Section
33.884 m², Large (>1 m²)

Expand to show TLE details & history
Last TLE update: 14 hours ago

TLE from 14 hours ago
0 STARLINK-31692
1 59577U 24076P   26035.48706843  .00001512  00000-0  64496-4 0  9990
2 59577  43.0028 196.5809 0000937 282.5193  77.5553 15.27566372101423
Epoch: 2026-02-04T11:41Z
TLE epoch observation values (Epoch: 2026-02-04T11:41:22.712Z)
Latitude
-0.00007°
Longitude
-113.41675°
Altitude
482.727 km
Speed
7.626 km/s
True Right ascension
13h 06m 19s
True Declination
0° 00' 00"
Sunlit
Object was in full shadow at epoch
Visualization orbit readout
Latitude
Unknown
Longitude
Unknown
Altitude
Unknown
Speed
Unknown
Apparent Right ascension
Unknown
Apparent Declination
Unknown
Sunlit
N/A
Visualization observer readout
Local Sidereal Time
03:51:54
Azimuth
Unknown
Elevation
Unknown
Doppler factor
Unknown
Orbital elements
Apogee altitude
485.678 km
Perigee altitude
484.392 km
Semi-major axis
6,863.172 km
Eccentricity
0.00009
Inclination
43.0028°
RAAN
196.5809°
Arg. of periapsis
282.5193°
True anomaly
77.56579°
Mean anomaly
77.5553°
Eccentric anomaly
77.56054°
Mean motion
3.8173 °/min
Orbital period
94.31 mins
BSTAR
0.000064496
Loading maneuver chart data...
Computing Atmospheric mass density...
Loading historical data...
Loading historical data...
Loading historical data...
Loading historical data...
Loading historical data...
Loading historical data...
Loading historical data...

Documentation

Showing up to 5 results
|